Вернуться в каталог

BLOCK DM-SL DEB

LostHEO
NORAD 34837·DEBRIS· XX

Запущен Apr 20, 2009 с Sea Launch Platform

Loading…

Ближайшие Пролёты (ближайшие 24 часа)

TLE

УстаревшееSource: Space-Track

Эпоха: May 7, 2009, 07:51 UTC

1 34837U 09020D   09127.32770698  .00000000  00000-0  10000-3 0  9991
2 34837 000.0612 166.2165 4753000 147.6852 275.5734 01.81486641   300

Отслеживайте BLOCK DM-SL DEB в реальном времени с AllMySat

Download on the App Store